User: anonymous   Login
Location: Unspecified
(0.0000°N, 0.0000°E)
Time: 23:02:58
(UTC+00:00)
Language:

STARLINK-4600 - Orbit

View from above orbital plane
View from above orbital plane
View from above satellite
View from above satellite

Ground track
Ground track

The orbit is defined by the following mean orbital elements,

1 53628U          26145.54437625 +.00000000 +00000-0 +15954-4 0 00009
2 53628  53.2132 248.6686 0001083  87.1743 272.9373 15.08837911    00
Epoch (UTC): 25 May 2026 13:03:54
Eccentricity: 0.0001083
inclination: 53.2132°
perigee height: 539 km
apogee height: 540 km
right ascension of ascending node: 248.6686°
argument of perigee: 87.1743°
revolutions per day: 15.08837911
mean anomaly at epoch: 272.9373°

The dashed part of the orbit path shows where the satellite is in the earth's shadow,  

DLR